Skip Page Navigation
NASA JPL Caltech
NASA Logo - Jet Propulsion Laboratory + View the NASA Portal
+ Center for Near-Earth Object Studies
JPL Home Earth Solar System Stars & Galaxies Technology
JPL Solar System Dynamics
BODIES ORBITS EPHEMERIDES TOOLS PHYSICAL DATA DISCOVERY FAQ SITE MAP
JPL Small-Body Database Browser
Search: [ help ]  
48624 Sadayuki (1995 PM)
Classification: Main-belt Asteroid          SPK-ID: 2048624
Ephemeris | Orbit Diagram | Orbital Elements | Mission Design | Physical Parameters | Discovery Circumstances ]

[ show orbit diagram ]
Orbital Elements at Epoch 2459396.5 (2021-Jul-01.0) TDB
Reference: JPL 22 (heliocentric ecliptic J2000)
 Element Value Uncertainty (1-sigma)   Units 
e .1681774816530872 3.061e-08  
a 2.188402369055285 6.6398e-09 au
q 1.820362369783917 6.7369e-08 au
i 5.276854926891559 3.4732e-06 deg
node 273.5763288748564 4.7593e-05 deg
peri 26.5048115671385 5.049e-05 deg
M 11.18628885312002 1.9262e-05 deg
tp 2459359.757160136523
(2021-May-25.25716014)
6.3191e-05 TDB
period 1182.467440679608
3.24
5.3816e-06
1.473e-08
d
yr
n .3044481290690715 1.3856e-09 deg/d
Q 2.556442368326653 7.7565e-09 au
  Orbit Determination Parameters
   # obs. used (total)      958  
   data-arc span      9999 days (27.38 yr)  
   first obs. used      1994-02-04  
   last obs. used      2021-06-21  
   planetary ephem.      DE441  
   SB-pert. ephem.      SB441-N16  
   condition code      0  
   norm. resid. RMS      .54455  
   source      ORB  
   producer      Otto Matic  
   solution date      2021-Jul-08 07:55:10  

Additional Information
 Earth MOID = .805958 au 
 Jupiter MOID = 2.6447 au 
 T_jup = 3.651 
[ show covariance matrix ]

Ephemeris | Orbit Diagram | Orbital Elements | Mission Design | Physical Parameters | Discovery Circumstances ]

Physical Parameter Table
Parameter Symbol Value Units Sigma Reference Notes
absolute magnitude H 15.86   n/a E2021B10  
diameter diameter 3.864 km 0.294 urn:nasa:pds:neowise_diameters_albedos::2.0[mainbelt] (http://adsabs.harvard.edu/abs/2011ApJ...741...68M)  
geometric albedo albedo 0.052   0.011 urn:nasa:pds:neowise_diameters_albedos::2.0[mainbelt] (http://adsabs.harvard.edu/abs/2011ApJ...741...68M)  

48624 Sadayuki           Discovered 1995 Aug. 4 by T. Okuni at Nanyo.
Sadayuki Okuni (b. 1967), nephew of the discoverer, is a high-school teacher with an interest in astronomy. He has been responsible for the maintenance of the personal computer of the Nanyo Observatory.
NOTE: some special characters may not display properly (any characters within {} are an attempt to place the proper accent above a character)
Reference: 20080520/MPCPages.arcLast Updated: 2008-05-22

Alternate Designations
 1995 PM = 2001 GU10 
Ephemeris | Orbit Diagram | Orbital Elements | Mission Design | Physical Parameters | Discovery Circumstances ]
ABOUT SSD CREDITS/AWARDS PRIVACY/COPYRIGHT GLOSSARY LINKS
FirstGov 2021-Aug-01 05:52 UT
(server date/time)  
NASA Home Page
Site Manager:   Ryan S. Park
Webmaster  Alan B. Chamberlin